QPF
0.00 0.00 0.00 0.00 0.00 0.00 0.01 0.01 0.02 0.03 0.02 0.03 0.08 0.15 0.21 0.27 0.22 0.18 0.12 0.06 0.04 0.02 0.02 0.02 0.03 0.04 0.05 0.07 0.06 0.06 0.06 0.07 0.05 0.04 0.04 0.02 0.02 0.02 0.03 0.02 0.01 0.01 0.01 0.01
0.00 0.01 0.00 0.01 0.01 0.01 0.02 0.03 0.03 0.06 0.04 0.05 0.12 0.21 0.30 0.29 0.26 0.24 0.13 0.06 0.03 0.01 0.01 0.01 0.01 0.01 0.02 0.02 0.02 0.03 0.03 0.02 0.02 0.01 0.01 0.01 0.00 0.00 0.00 0.00 0.00 0.00 0.01 0.01
0.00 0.00 0.00 0.01 0.01 0.02 0.02 0.02 0.02 0.02 0.04 0.10 0.13 0.25 0.39 0.31 0.28 0.23 0.14 0.07 0.03 0.01 0.01 0.00 0.00 0.00 0.01 0.01 0.01 0.01 0.01 0.01 0.01 0.00 0.00 0.00 0.00 0.00 0.00 0.01 0.00 0.00 0.00 0.01
0.00 0.01 0.01 0.01 0.02 0.02 0.02 0.01 0.01 0.02 0.03 0.08 0.11 0.21 0.36 0.28 0.22 0.18 0.11 0.06 0.04 0.02 0.01 0.00 0.00 0.00 0.00 0.00 0.00 0.00 0.00 0.00 0.00 0.00 0.00 0.00 0.00 0.00 0.00 0.00 0.00 0.00 0.00 0.00
0.00 0.01 0.01 0.01 0.01 0.02 0.02 0.01 0.01 0.02 0.02 0.04 0.06 0.14 0.30 0.29 0.25 0.17 0.08 0.05 0.03 0.02 0.01 0.00 0.00 0.00 0.00 0.00 0.00 0.00 0.00 0.00 0.00 0.00 0.00 0.00 0.00 0.00 0.00 0.00 0.00 0.00 0.00 0.00
0.01 0.01 0.01 0.01 0.01 0.01 0.01 0.02 0.03 0.03 0.02 0.05 0.05 0.08 0.22 0.26 0.17 0.14 0.10 0.05 0.03 0.02 0.01 0.00 0.01 0.00 0.00 0.00 0.00 0.00 0.00 0.00 0.00 0.00 0.00 0.00 0.00 0.00 0.00 0.00 0.00 0.00 0.00 0.00
0.01 0.01 0.01 0.01 0.01 0.00 0.01 0.02 0.03 0.03 0.04 0.08 0.05 0.15 0.36 0.30 0.15 0.11 0.10 0.05 0.03 0.02 0.01 0.00 0.00 0.00 0.00 0.00 0.00 0.00 0.00 0.00 0.00 0.00 0.00 0.00 0.00 0.00 0.00 0.00 0.00 0.00 0.00 0.00
0.02 0.01 0.01 0.01 0.01 0.00 0.01 0.01 0.03 0.04 0.07 0.12 0.12 0.26 0.50 0.32 0.13 0.07 0.06 0.03 0.03 0.02 0.01 0.00 0.00 0.00 0.00 0.00 0.00 0.00 0.00 0.00 0.00 0.00 0.00 0.00 0.00 0.00 0.00 0.00 0.00 0.00 0.00 0.00
0.01 0.01 0.01 0.01 0.01 0.01 0.01 0.01 0.01 0.03 0.05 0.11 0.14 0.17 0.24 0.15 0.08 0.04 0.03 0.02 0.01 0.00 0.00 0.00 0.00 0.00 0.00 0.00 0.00 0.00 0.00 0.00 0.00 0.00 0.00 0.00 0.00 0.00 0.00 0.00 0.00 0.00 0.00 0.00
0.01 0.02 0.02 0.01 0.01 0.01 0.01 0.01 0.02 0.02 0.03 0.07 0.11 0.13 0.11 0.05 0.04 0.03 0.03 0.01 0.01 0.01 0.01 0.00 0.00 0.00 0.00 0.00 0.00 0.00 0.00 0.00 0.00 0.00 0.00 0.00 0.00 0.00 0.00 0.00 0.00 0.00 0.00 0.00
0.01 0.01 0.02 0.02 0.02 0.01 0.00 0.00 0.01 0.01 0.01 0.02 0.05 0.08 0.03 0.01 0.02 0.02 0.01 0.01 0.01 0.00 0.00 0.00 0.00 0.00 0.00 0.00 0.00 0.00 0.00 0.00 0.00 0.00 0.00 0.00 0.00 0.00 0.00 0.00 0.00 0.00 0.00 0.00
0.00 0.01 0.01 0.02 0.01 0.00 0.00 0.00 0.00 0.00 0.00 0.00 0.01 0.02 0.01 0.00 0.00 0.00 0.00 0.00 0.00 0.00 0.00 0.00 0.00 0.00 0.00 0.00 0.00 0.00 0.00 0.00 0.00 0.00 0.00 0.00 0.00 0.00 0.00 0.00 0.00 0.00 0.00 0.00
0.00 0.01 0.02 0.02 0.02 0.01 0.00 0.00 0.00 0.00 0.00 0.00 0.00 0.00 0.00 0.00 0.00 0.00 0.00 0.00 0.00 0.00 0.00 0.00 0.00 0.00 0.00 0.00 0.00 0.00 0.00 0.00 0.00 0.00 0.00 0.00 0.00 0.00 0.00 0.00 0.00 0.00 0.00 0.00
0.00 0.00 0.01 0.02 0.02 0.02 0.01 0.00 0.00 0.00 0.00 0.00 0.00 0.00 0.00 0.00 0.00 0.00 0.00 0.00 0.00 0.00 0.00 0.00 0.00 0.00 0.00 0.00 0.00 0.00 0.00 0.00 0.00 0.00 0.00 0.00 0.00 0.00 0.00 0.00 0.00 0.00 0.00 0.00
0.01 0.00 0.00 0.00 0.01 0.02 0.01 0.01 0.01 0.00 0.00 0.00 0.00 0.00 0.00 0.00 0.00 0.00 0.00 0.00 0.00 0.00 0.00 0.00 0.00 0.00 0.00 0.00 0.00 0.00 0.00 0.00 0.00 0.00 0.00 0.00 0.00 0.00 0.00 0.00 0.00 0.00 0.00 0.00
0.00 0.00 0.00 0.00 0.01 0.01 0.01 0.02 0.01 0.00 0.00 0.00 0.00 0.00 0.00 0.00 0.00 0.00 0.00 0.00 0.00 0.00 0.00 0.00 0.00 0.00 0.00 0.00 0.00 0.00 0.00 0.00 0.00 0.00 0.00 0.00 0.00 0.00 0.00 0.00 0.00 0.00 0.00 0.00
0.00 0.00 0.00 0.00 0.00 0.01 0.02 0.02 0.02 0.01 0.00 0.00 0.00 0.00 0.00 0.00 0.00 0.00 0.00 0.00 0.00 0.00 0.00 0.00 0.00 0.00 0.00 0.00 0.00 0.00 0.00 0.00 0.00 0.00 0.00 0.00 0.00 0.00 0.00 0.00 0.00 0.00 0.00 0.00
0.00 0.00 0.00 0.00 0.00 0.01 0.01 0.02 0.02 0.01 0.00 0.00 0.00 0.00 0.00 0.00 0.00 0.00 0.00 0.00 0.00 0.00 0.00 0.00 0.00 0.00 0.00 0.00 0.00 0.00 0.00 0.00 0.00 0.00 0.00 0.00 0.00 0.00 0.00 0.00 0.00 0.00 0.00 0.01
0.01 0.00 0.00 0.00 0.00 0.01 0.01 0.01 0.02 0.02 0.01 0.00 0.00 0.00 0.00 0.00 0.00 0.00 0.00 0.00 0.00 0.00 0.00 0.00 0.00 0.00 0.00 0.00 0.00 0.00 0.00 0.00 0.00 0.00 0.00 0.00 0.00 0.00 0.00 0.00 0.00 0.00 0.00 0.00
0.01 0.00 0.00 0.01 0.02 0.02 0.01 0.02 0.02 0.01 0.01 0.01 0.00 0.00 0.00 0.00 0.00 0.00 0.00 0.00 0.00 0.00 0.00 0.00 0.00 0.00 0.00 0.00 0.00 0.00 0.00 0.00 0.00 0.00 0.00 0.00 0.00 0.00 0.00 0.00 0.00 0.00 0.01 0.01
0.00 0.00 0.01 0.02 0.02 0.02 0.02 0.01 0.01 0.00 0.00 0.00 0.00 0.00 0.00 0.00 0.00 0.00 0.00 0.00 0.00 0.00 0.00 0.00 0.00 0.00 0.00 0.00 0.00 0.00 0.00 0.00 0.00 0.00 0.00 0.00 0.00 0.00 0.00 0.01 0.01 0.01 0.01 0.01
0.00 0.00 0.00 0.01 0.02 0.01 0.01 0.00 0.00 0.00 0.00 0.00 0.00 0.00 0.00 0.00 0.00 0.00 0.00 0.00 0.00 0.00 0.00 0.00 0.00 0.00 0.00 0.00 0.00 0.00 0.00 0.00 0.00 0.00 0.00 0.00 0.00 0.00 0.00 0.00 0.01 0.01 0.01 0.01
0.00 0.00 0.00 0.00 0.00 0.00 0.00 0.00 0.00 0.00 0.00 0.00 0.00 0.00 0.00 0.00 0.00 0.00 0.00 0.00 0.00 0.00 0.00 0.00 0.00 0.00 0.00 0.00 0.00 0.00 0.00 0.00 0.00 0.00 0.00 0.00 0.00 0.00 0.01 0.01 0.01 0.01 0.01 0.01
0.00 0.00 0.00 0.00 0.00 0.00 0.00 0.00 0.00 0.00 0.00 0.00 0.00 0.00 0.00 0.00 0.00 0.00 0.00 0.00 0.00 0.00 0.00 0.00 0.00 0.00 0.00 0.00 0.00 0.00 0.00 0.00 0.00 0.00 0.00 0.00 0.00 0.00 0.01 0.01 0.01 0.01 0.01 0.01
0.00 0.00 0.00 0.00 0.00 0.00 0.00 0.00 0.00 0.00 0.00 0.00 0.00 0.00 0.00 0.00 0.00 0.00 0.00 0.00 0.00 0.00 0.00 0.00 0.00 0.00 0.00 0.00 0.00 0.00 0.00 0.00 0.00 0.00 0.00 0.00 0.00 0.01 0.01 0.01 0.01 0.01 0.01 0.01
0.00 0.00 0.00 0.00 0.00 0.00 0.00 0.00 0.00 0.00 0.00 0.00 0.00 0.00 0.00 0.00 0.00 0.00 0.00 0.00 0.00 0.00 0.00 0.00 0.00 0.00 0.00 0.00 0.00 0.00 0.00 0.00 0.00 0.00 0.00 0.00 0.00 0.00 0.01 0.01 0.01 0.01 0.01 0.01
MSLP
1011.96 1012.90 1013.61 1014.08 1014.35 1014.47 1014.54 1014.64 1014.82 1015.09 1015.44 1015.81 1016.14 1016.36 1016.42 1016.32 1016.06 1015.69 1015.28 1014.87 1014.51 1014.24 1014.04 1013.92 1013.83 1013.74 1013.63 1013.50 1013.34 1013.18 1013.04 1012.96 1012.93 1012.97 1013.06 1013.16 1013.25 1013.30 1013.28 1013.20 1013.08 1012.94 1012.82 1012.76
1011.87 1012.69 1013.30 1013.71 1013.97 1014.18 1014.40 1014.71 1015.12 1015.63 1016.18 1016.68 1017.07 1017.28 1017.28 1017.06 1016.67 1016.18 1015.66 1015.16 1014.75 1014.43 1014.21 1014.04 1013.91 1013.76 1013.59 1013.39 1013.18 1013.00 1012.88 1012.84 1012.89 1013.01 1013.17 1013.34 1013.46 1013.50 1013.44 1013.30 1013.10 1012.89 1012.72 1012.62
1011.56 1012.20 1012.67 1013.01 1013.30 1013.61 1014.02 1014.56 1015.24 1015.99 1016.73 1017.36 1017.80 1017.97 1017.87 1017.51 1016.97 1016.34 1015.69 1015.12 1014.65 1014.31 1014.07 1013.90 1013.75 1013.58 1013.37 1013.15 1012.92 1012.74 1012.64 1012.65 1012.76 1012.96 1013.19 1013.41 1013.56 1013.61 1013.53 1013.34 1013.08 1012.81 1012.59 1012.46
1011.16 1011.59 1011.90 1012.16 1012.46 1012.89 1013.51 1014.31 1015.25 1016.25 1017.17 1017.91 1018.37 1018.48 1018.26 1017.74 1017.03 1016.24 1015.47 1014.81 1014.30 1013.95 1013.73 1013.57 1013.44 1013.29 1013.09 1012.86 1012.64 1012.47 1012.40 1012.44 1012.60 1012.84 1013.13 1013.38 1013.56 1013.60 1013.50 1013.29 1012.99 1012.68 1012.42 1012.25
1010.84 1011.02 1011.16 1011.34 1011.66 1012.21 1013.02 1014.07 1015.26 1016.48 1017.57 1018.39 1018.84 1018.88 1018.52 1017.84 1016.95 1016.00 1015.12 1014.38 1013.84 1013.50 1013.31 1013.20 1013.12 1013.01 1012.84 1012.64 1012.43 1012.27 1012.20 1012.26 1012.43 1012.69 1012.99 1013.25 1013.43 1013.47 1013.37 1013.14 1012.83 1012.50 1012.21 1012.01
1010.73 1010.68 1010.64 1010.74 1011.07 1011.72 1012.70 1013.95 1015.36 1016.75 1017.96 1018.83 1019.26 1019.21 1018.72 1017.87 1016.83 1015.74 1014.75 1013.96 1013.40 1013.08 1012.94 1012.90 1012.89 1012.84 1012.72 1012.55 1012.35 1012.19 1012.11 1012.14 1012.29 1012.53 1012.80 1013.05 1013.21 1013.24 1013.14 1012.91 1012.59 1012.25 1011.95 1011.73
1010.91 1010.64 1010.44 1010.46 1010.80 1011.52 1012.61 1014.01 1015.56 1017.07 1018.35 1019.23 1019.61 1019.48 1018.86 1017.88 1016.71 1015.52 1014.47 1013.64 1013.10 1012.81 1012.73 1012.76 1012.82 1012.83 1012.77 1012.62 1012.44 1012.26 1012.14 1012.12 1012.21 1012.38 1012.59 1012.79 1012.92 1012.94 1012.83 1012.61 1012.31 1011.98 1011.68 1011.44
1011.32 1010.89 1010.57 1010.52 1010.84 1011.59 1012.75 1014.22 1015.83 1017.38 1018.66 1019.51 1019.84 1019.62 1018.92 1017.85 1016.61 1015.38 1014.30 1013.48 1012.96 1012.73 1012.71 1012.81 1012.93 1013.00 1012.97 1012.85 1012.66 1012.45 1012.28 1012.19 1012.19 1012.27 1012.40 1012.53 1012.61 1012.60 1012.49 1012.28 1012.00 1011.70 1011.40 1011.16
1011.86 1011.33 1010.94 1010.84 1011.14 1011.88 1013.03 1014.48 1016.06 1017.57 1018.80 1019.59 1019.85 1019.58 1018.83 1017.74 1016.50 1015.28 1014.24 1013.47 1013.00 1012.82 1012.86 1013.01 1013.18 1013.29 1013.28 1013.16 1012.96 1012.71 1012.48 1012.30 1012.21 1012.20 1012.23 1012.29 1012.31 1012.27 1012.16 1011.96 1011.71 1011.43 1011.15 1010.91
1012.35 1011.81 1011.41 1011.29 1011.55 1012.24 1013.32 1014.68 1016.16 1017.55 1018.67 1019.37 1019.57 1019.27 1018.53 1017.49 1016.32 1015.19 1014.24 1013.55 1013.16 1013.04 1013.13 1013.31 1013.50 1013.61 1013.61 1013.48 1013.25 1012.97 1012.68 1012.43 1012.26 1012.15 1012.10 1012.08 1012.05 1011.97 1011.85 1011.67 1011.44 1011.19 1010.93 1010.68
1012.64 1012.17 1011.81 1011.71 1011.94 1012.56 1013.52 1014.72 1016.03 1017.24 1018.21 1018.81 1018.96 1018.66 1017.99 1017.06 1016.04 1015.06 1014.24 1013.68 1013.38 1013.31 1013.42 1013.61 1013.78 1013.88 1013.86 1013.71 1013.46 1013.15 1012.82 1012.52 1012.28 1012.11 1011.99 1011.90 1011.82 1011.72 1011.58 1011.41 1011.20 1010.96 1010.72 1010.47
1012.66 1012.32 1012.07 1012.01 1012.23 1012.75 1013.56 1014.57 1015.66 1016.67 1017.46 1017.94 1018.06 1017.80 1017.24 1016.48 1015.64 1014.86 1014.22 1013.79 1013.58 1013.56 1013.67 1013.83 1013.96 1014.02 1013.96 1013.78 1013.52 1013.19 1012.85 1012.53 1012.26 1012.05 1011.88 1011.74 1011.62 1011.49 1011.34 1011.16 1010.96 1010.74 1010.50 1010.26
1012.44 1012.27 1012.15 1012.16 1012.37 1012.81 1013.46 1014.26 1015.11 1015.90 1016.52 1016.89 1016.98 1016.78 1016.36 1015.79 1015.18 1014.61 1014.16 1013.87 1013.74 1013.74 1013.83 1013.94 1014.00 1013.99 1013.89 1013.68 1013.40 1013.08 1012.75 1012.44 1012.17 1011.94 1011.75 1011.59 1011.43 1011.27 1011.09 1010.90 1010.70 1010.47 1010.24 1009.99
1012.08 1012.10 1012.13 1012.22 1012.44 1012.80 1013.29 1013.88 1014.50 1015.07 1015.52 1015.79 1015.86 1015.74 1015.46 1015.10 1014.70 1014.35 1014.08 1013.91 1013.84 1013.85 1013.88 1013.91 1013.90 1013.81 1013.65 1013.41 1013.14 1012.84 1012.54 1012.26 1012.01 1011.79 1011.59 1011.41 1011.22 1011.02 1010.81 1010.60 1010.37 1010.14 1009.90 1009.65
1011.74 1011.94 1012.10 1012.28 1012.50 1012.78 1013.14 1013.54 1013.94 1014.31 1014.60 1014.78 1014.84 1014.79 1014.65 1014.47 1014.28 1014.11 1013.99 1013.91 1013.88 1013.86 1013.84 1013.78 1013.67 1013.50 1013.28 1013.03 1012.76 1012.49 1012.24 1012.01 1011.80 1011.60 1011.40 1011.19 1010.96 1010.73 1010.47 1010.22 1009.97 1009.72 1009.47 1009.22
1011.58 1011.90 1012.17 1012.40 1012.61 1012.83 1013.06 1013.29 1013.51 1013.71 1013.86 1013.96 1014.01 1014.02 1014.00 1013.96 1013.93 1013.91 1013.90 1013.89 1013.86 1013.81 1013.71 1013.55 1013.35 1013.11 1012.85 1012.58 1012.33 1012.10 1011.90 1011.72 1011.55 1011.37 1011.17 1010.93 1010.67 1010.38 1010.07 1009.77 1009.48 1009.20 1008.94 1008.69
1011.67 1012.06 1012.37 1012.62 1012.81 1012.95 1013.06 1013.15 1013.22 1013.28 1013.32 1013.36 1013.40 1013.44 1013.51 1013.58 1013.66 1013.74 1013.80 1013.82 1013.78 1013.68 1013.51 1013.27 1013.00 1012.70 1012.40 1012.14 1011.91 1011.72 1011.57 1011.44 1011.30 1011.13 1010.91 1010.65 1010.33 1009.98 1009.61 1009.25 1008.91 1008.61 1008.33 1008.08
1012.02 1012.39 1012.69 1012.90 1013.03 1013.09 1013.10 1013.07 1013.02 1012.97 1012.92 1012.91 1012.94 1013.01 1013.12 1013.27 1013.42 1013.56 1013.65 1013.68 1013.62 1013.48 1013.25 1012.96 1012.63 1012.30 1012.00 1011.74 1011.55 1011.40 1011.30 1011.19 1011.07 1010.90 1010.66 1010.34 1009.97 1009.55 1009.12 1008.69 1008.30 1007.96 1007.67 1007.41
1012.50 1012.80 1013.01 1013.13 1013.18 1013.15 1013.06 1012.93 1012.79 1012.65 1012.56 1012.51 1012.53 1012.62 1012.77 1012.95 1013.14 1013.31 1013.42 1013.44 1013.37 1013.20 1012.94 1012.62 1012.27 1011.94 1011.66 1011.43 1011.27 1011.16 1011.08 1011.00 1010.87 1010.68 1010.40 1010.04 1009.60 1009.11 1008.61 1008.13 1007.69 1007.31 1006.99 1006.73
1012.96 1013.11 1013.18 1013.18 1013.11 1012.98 1012.80 1012.59 1012.39 1012.22 1012.09 1012.04 1012.07 1012.17 1012.34 1012.55 1012.76 1012.95 1013.06 1013.09 1013.01 1012.83 1012.57 1012.26 1011.94 1011.64 1011.39 1011.20 1011.07 1010.99 1010.93 1010.85 1010.71 1010.48 1010.16 1009.73 1009.23 1008.68 1008.11 1007.58 1007.09 1006.68 1006.34 1006.07
1013.20 1013.17 1013.08 1012.92 1012.72 1012.49 1012.23 1011.98 1011.75 1011.56 1011.45 1011.41 1011.47 1011.60 1011.79 1012.03 1012.26 1012.45 1012.58 1012.62 1012.56 1012.41 1012.18 1011.91 1011.63 1011.38 1011.18 1011.03 1010.94 1010.89 1010.83 1010.73 1010.56 1010.28 1009.90 1009.42 1008.86 1008.25 1007.63 1007.05 1006.53 1006.09 1005.74 1005.45
1013.10 1012.88 1012.60 1012.29 1011.96 1011.63 1011.32 1011.04 1010.81 1010.66 1010.58 1010.59 1010.69 1010.87 1011.11 1011.37 1011.63 1011.85 1012.01 1012.08 1012.05 1011.95 1011.78 1011.57 1011.36 1011.17 1011.02 1010.92 1010.86 1010.81 1010.73 1010.60 1010.39 1010.07 1009.63 1009.09 1008.48 1007.82 1007.17 1006.56 1006.01 1005.55 1005.18 1004.89
1012.60 1012.20 1011.75 1011.29 1010.85 1010.45 1010.10 1009.82 1009.63 1009.53 1009.52 1009.61 1009.79 1010.03 1010.33 1010.64 1010.94 1011.20 1011.39 1011.51 1011.54 1011.49 1011.39 1011.26 1011.13 1011.00 1010.91 1010.84 1010.79 1010.73 1010.62 1010.45 1010.19 1009.81 1009.32 1008.73 1008.08 1007.39 1006.71 1006.08 1005.52 1005.06 1004.68 1004.38
1011.74 1011.19 1010.60 1010.02 1009.50 1009.04 1008.69 1008.44 1008.30 1008.28 1008.37 1008.55 1008.82 1009.15 1009.51 1009.88 1010.24 1010.55 1010.79 1010.96 1011.06 1011.08 1011.06 1011.00 1010.94 1010.87 1010.81 1010.76 1010.71 1010.62 1010.48 1010.25 1009.93 1009.49 1008.95 1008.33 1007.64 1006.94 1006.25 1005.62 1005.06 1004.60 1004.22 1003.91
1010.66 1009.98 1009.29 1008.63 1008.05 1007.57 1007.23 1007.03 1006.96 1007.03 1007.22 1007.51 1007.87 1008.29 1008.73 1009.17 1009.58 1009.95 1010.25 1010.48 1010.64 1010.73 1010.78 1010.79 1010.78 1010.75 1010.72 1010.68 1010.60 1010.48 1010.28 1010.00 1009.62 1009.13 1008.55 1007.89 1007.20 1006.49 1005.80 1005.18 1004.63 1004.17 1003.79 1003.49
1009.51 1008.76 1008.00 1007.29 1006.68 1006.21 1005.89 1005.74 1005.75 1005.91 1006.19 1006.58 1007.03 1007.53 1008.05 1008.55 1009.01 1009.43 1009.78 1010.06 1010.28 1010.43 1010.54 1010.60 1010.63 1010.64 1010.61 1010.56 1010.45 1010.28 1010.04 1009.70 1009.26 1008.73 1008.12 1007.45 1006.74 1006.04 1005.38 1004.77 1004.23 1003.79 1003.42 1003.13
Thickness
5782 5762 5749 5756 5761 5760 5758 5750 5745 5753 5765 5752 5738 5731 5734 5741 5740 5742 5741 5742 5741 5742 5746 5748 5748 5747 5746 5744 5743 5741 5739 5737 5736 5733 5729 5726 5723 5722 5721 5719 5717 5715 5713 5712
5762 5754 5772 5779 5776 5768 5760 5747 5745 5752 5761 5749 5733 5726 5727 5731 5732 5737 5737 5735 5738 5737 5739 5741 5741 5741 5740 5738 5736 5734 5732 5730 5728 5725 5722 5719 5716 5713 5711 5710 5709 5707 5706 5704
5756 5768 5786 5779 5769 5761 5756 5749 5747 5744 5746 5742 5730 5713 5715 5723 5730 5736 5739 5736 5737 5736 5735 5736 5736 5735 5735 5733 5731 5729 5726 5723 5721 5719 5715 5711 5706 5703 5700 5699 5698 5698 5698 5696
5771 5783 5782 5773 5768 5762 5746 5763 5758 5749 5730 5713 5720 5695 5707 5714 5719 5727 5732 5734 5736 5737 5736 5734 5734 5733 5731 5730 5728 5725 5721 5718 5715 5712 5706 5701 5694 5690 5689 5688 5688 5688 5688 5688
5767 5778 5774 5767 5773 5772 5759 5767 5755 5743 5723 5708 5709 5696 5701 5709 5711 5719 5726 5731 5734 5734 5734 5733 5733 5731 5730 5729 5725 5721 5717 5713 5709 5705 5700 5694 5689 5685 5682 5681 5679 5678 5678 5678
5776 5787 5784 5781 5786 5782 5769 5752 5738 5726 5713 5691 5696 5692 5693 5703 5710 5718 5725 5730 5732 5733 5733 5732 5732 5730 5727 5725 5721 5716 5710 5706 5702 5698 5693 5688 5683 5678 5674 5671 5669 5667 5667 5667
5763 5774 5785 5789 5774 5772 5760 5729 5705 5699 5687 5684 5696 5693 5695 5715 5723 5724 5725 5728 5730 5731 5729 5728 5726 5723 5720 5717 5713 5709 5703 5697 5694 5690 5685 5680 5675 5671 5666 5663 5660 5657 5656 5655
5743 5743 5772 5782 5773 5761 5755 5737 5707 5694 5683 5683 5693 5689 5702 5724 5730 5731 5730 5728 5728 5727 5726 5724 5721 5717 5713 5710 5705 5699 5693 5688 5685 5680 5676 5671 5667 5662 5658 5655 5652 5649 5647 5647
5743 5744 5774 5784 5785 5775 5756 5741 5736 5707 5691 5680 5684 5694 5710 5725 5726 5728 5728 5726 5724 5723 5721 5718 5714 5711 5706 5701 5696 5691 5685 5680 5676 5671 5666 5662 5658 5653 5649 5647 5644 5641 5639 5639
5759 5745 5763 5777 5779 5774 5764 5751 5726 5705 5685 5676 5682 5687 5692 5711 5715 5720 5720 5719 5719 5718 5714 5711 5708 5704 5699 5694 5688 5683 5678 5672 5666 5662 5657 5654 5649 5645 5641 5638 5634 5632 5630 5629
5765 5744 5749 5758 5755 5752 5753 5746 5727 5708 5701 5681 5672 5685 5719 5717 5718 5716 5717 5718 5716 5712 5708 5705 5701 5697 5692 5686 5681 5675 5669 5663 5658 5653 5649 5644 5640 5637 5633 5629 5626 5623 5621 5619
5764 5739 5731 5746 5763 5768 5757 5747 5730 5708 5702 5693 5679 5687 5730 5724 5721 5718 5716 5716 5714 5709 5704 5699 5695 5690 5684 5679 5674 5668 5662 5657 5651 5646 5641 5636 5632 5628 5624 5620 5617 5614 5611 5609
5763 5735 5717 5721 5735 5753 5751 5751 5742 5721 5704 5692 5679 5691 5724 5722 5719 5718 5715 5712 5708 5703 5698 5692 5688 5683 5678 5673 5667 5661 5655 5649 5644 5639 5633 5628 5623 5619 5615 5612 5608 5605 5601 5599
5769 5738 5722 5715 5723 5740 5745 5751 5748 5727 5702 5698 5697 5699 5712 5713 5713 5714 5712 5708 5702 5697 5691 5687 5681 5676 5672 5666 5660 5654 5648 5643 5637 5631 5625 5620 5616 5611 5607 5603 5599 5595 5592 5588
5764 5742 5746 5745 5753 5755 5752 5751 5748 5736 5723 5707 5706 5703 5707 5711 5713 5712 5708 5702 5696 5691 5688 5683 5676 5671 5665 5659 5653 5647 5641 5635 5630 5624 5618 5613 5609 5604 5599 5594 5590 5586 5581 5579
5758 5747 5746 5742 5754 5754 5751 5752 5749 5743 5735 5721 5712 5708 5718 5718 5712 5706 5701 5697 5692 5688 5684 5680 5674 5667 5660 5653 5647 5641 5634 5629 5623 5617 5611 5607 5601 5596 5591 5586 5581 5576 5571 5568
5749 5741 5731 5723 5738 5741 5731 5745 5745 5740 5739 5727 5711 5713 5717 5710 5705 5700 5699 5696 5691 5686 5681 5676 5669 5661 5654 5648 5642 5635 5629 5623 5616 5610 5605 5600 5594 5589 5583 5578 5573 5567 5562 5558
5749 5736 5722 5718 5721 5713 5730 5755 5753 5739 5733 5734 5726 5721 5716 5711 5706 5702 5699 5693 5688 5684 5678 5671 5663 5656 5650 5643 5636 5630 5623 5617 5611 5604 5599 5593 5588 5582 5577 5571 5565 5560 5554 5550
5759 5741 5723 5710 5708 5715 5736 5749 5745 5731 5722 5731 5723 5718 5713 5706 5699 5695 5697 5692 5686 5682 5675 5667 5660 5653 5646 5639 5632 5625 5618 5611 5605 5599 5593 5588 5582 5576 5571 5565 5559 5554 5549 5544
5757 5747 5725 5713 5707 5703 5727 5752 5756 5736 5711 5729 5725 5717 5710 5701 5684 5684 5694 5690 5685 5680 5671 5664 5657 5649 5641 5635 5628 5620 5612 5605 5599 5594 5588 5583 5577 5571 5565 5560 5554 5549 5544 5540
5737 5732 5721 5711 5706 5716 5744 5757 5750 5714 5711 5729 5726 5718 5711 5700 5694 5694 5692 5687 5682 5676 5669 5662 5653 5644 5637 5631 5623 5614 5607 5600 5595 5590 5584 5578 5572 5566 5562 5556 5551 5545 5540 5536
5730 5721 5716 5708 5703 5713 5754 5750 5734 5729 5736 5732 5726 5720 5713 5706 5701 5695 5689 5684 5678 5671 5666 5658 5648 5639 5633 5626 5618 5610 5603 5597 5591 5585 5579 5573 5568 5563 5560 5552 5547 5542 5536 5531
5738 5735 5726 5723 5725 5748 5757 5754 5754 5747 5737 5733 5727 5721 5715 5705 5698 5693 5687 5680 5675 5669 5660 5652 5644 5635 5628 5621 5614 5605 5599 5593 5586 5580 5574 5569 5564 5559 5554 5548 5543 5538 5532 5526
5747 5753 5741 5736 5743 5754 5758 5757 5754 5750 5743 5737 5731 5723 5716 5706 5698 5691 5682 5675 5669 5663 5655 5647 5639 5631 5623 5617 5610 5602 5596 5589 5582 5575 5570 5566 5560 5556 5552 5546 5541 5535 5529 5523
5747 5746 5735 5731 5743 5749 5751 5752 5750 5747 5742 5735 5729 5723 5715 5705 5696 5687 5678 5672 5665 5658 5651 5643 5635 5627 5620 5613 5606 5599 5592 5585 5578 5572 5567 5562 5557 5553 5549 5544 5539 5533 5528 5520
5745 5740 5731 5728 5742 5739 5742 5750 5749 5741 5735 5730 5724 5717 5712 5705 5695 5686 5676 5669 5662 5654 5647 5639 5631 5624 5617 5610 5603 5596 5589 5582 5575 5569 5564 5560 5555 5551 5547 5542 5538 5533 5527 5522